Weather History for PAIL - November, 2013

Change the Weather History Date:

Saturday, November 2, 2013

  Actual Average Record
Temperature  
Mean Temperature 35 °F -  
Max Temperature 43 °F 33 °F 52 °F (1986)
Min Temperature 27 °F 20 °F -5 °F (1985)
Degree Days  
Heating Degree Days 30    
Moisture  
Dew Point 32 °F    
Average Humidity 79    
Maximum Humidity 100    
Minimum Humidity 61    
Precipitation  
Precipitation 0.00 in - - ()
Sea Level Pressure  
Sea Level Pressure 29.78 in    
Wind  
Wind Speed 12 mph (ENE)    
Max Wind Speed 30 mph    
Max Gust Speed 39 mph    
Visibility 10 miles    
Events Rain , Snow    
Averages and records for this station are not official NWS values.
T = Trace of Precipitation, MM = Missing Value Source: NWS Daily Summary

Daily Weather History Graph

Daily Weather History Graph

Search for Another Location

Airport or City:

Trip Planner

Search our weather history database for the weather conditions in past years. The results will help you decide how hot, cold, wet, or windy it might be!

Date:

Astronomy

Nov. 02, 2013 Rise Set
Actual Time 9:44 AM AKDT 6:20 PM AKDT
Civil Twilight 8:59 AM AKDT 7:05 PM AKDT
Nautical Twilight 8:10 AM AKDT 7:55 PM AKDT
Astronomical Twilight 7:22 AM AKDT 8:42 PM AKDT
Moon 8:46 AM AKDT (11/2) 6:02 PM AKDT (11/2)
Length of Visible Light 10h 06m
Length of Day
8h 36m
Waning Crescent, 1% of the Moon is Illuminated
Nov 2
Waning Crescent
Nov 3
New
Nov 9
First Quarter
Nov 17
Full
Nov 25
Last Quarter

Hourly Weather History & Observations

Time (AKDT) Temp. Windchill Dew Point Humidity Pressure Visibility Wind Dir Wind Speed Gust Speed Precip Events Conditions
12:07 AM 28.4 °F - 28.4 °F 100% 30.01 in 8.0 mi Calm Calm - 0.00 in Snow Light Snow
12:53 AM 28.9 °F 25.2 °F 28.0 °F 96% 30.01 in 10.0 mi North 3.5 mph - 0.00 in   Overcast
1:14 AM 28.4 °F 21.2 °F 26.6 °F 93% 29.98 in 10.0 mi NNE 6.9 mph - N/A   Scattered Clouds
1:43 AM 28.4 °F 23.3 °F 24.8 °F 86% 29.98 in 10.0 mi North 4.6 mph - N/A   Mostly Cloudy
1:53 AM 28.0 °F 20.8 °F 25.0 °F 88% 29.99 in 10.0 mi NNE 6.9 mph - N/A   Overcast
2:03 AM 28.4 °F - 24.8 °F 86% 29.99 in 10.0 mi Calm Calm - N/A   Overcast
2:53 AM 28.0 °F 19.3 °F 26.1 °F 92% 29.94 in 10.0 mi NNE 9.2 mph - N/A   Mostly Cloudy
3:04 AM 28.4 °F 20.4 °F 26.6 °F 93% 29.92 in 10.0 mi NNE 8.1 mph - N/A   Scattered Clouds
3:53 AM 28.0 °F 22.8 °F 25.0 °F 88% 29.91 in 10.0 mi NE 4.6 mph - N/A   Clear
4:53 AM 30.0 °F 25.2 °F 27.0 °F 88% 29.87 in 10.0 mi North 4.6 mph - N/A   Clear
5:53 AM 37.9 °F 29.6 °F 30.9 °F 76% 29.84 in 10.0 mi ESE 13.8 mph 23.0 mph N/A   Clear
6:53 AM 39.9 °F 30.0 °F 32.0 °F 73% 29.80 in 10.0 mi East 21.9 mph 32.2 mph N/A   Scattered Clouds
7:53 AM 39.9 °F 29.0 °F 30.9 °F 70% 29.77 in 10.0 mi East 26.5 mph 38.0 mph N/A   Mostly Cloudy
8:53 AM 39.9 °F 29.5 °F 30.0 °F 68% 29.75 in 10.0 mi East 24.2 mph 35.7 mph N/A   Overcast
9:53 AM 41.0 °F 31.4 °F 32.0 °F 70% 29.74 in 10.0 mi East 21.9 mph 38.0 mph N/A   Mostly Cloudy
10:53 AM 41.0 °F 30.7 °F 33.1 °F 73% 29.72 in 10.0 mi East 25.3 mph 35.7 mph 0.00 in   Overcast
11:53 AM 41.0 °F 30.7 °F 34.0 °F 76% 29.71 in 10.0 mi East 25.3 mph 35.7 mph N/A   Overcast
12:53 PM 42.1 °F 31.3 °F 35.1 °F 76% 29.70 in 10.0 mi East 29.9 mph 39.1 mph N/A   Overcast
1:53 PM 41.0 °F 31.1 °F 35.1 °F 79% 29.69 in 10.0 mi East 23.0 mph 34.5 mph 0.00 in   Overcast
2:53 PM 42.1 °F 32.6 °F 35.1 °F 76% 29.68 in 10.0 mi East 23.0 mph 34.5 mph N/A   Overcast
3:53 PM 43.0 °F 34.0 °F 35.1 °F 74% 29.66 in 10.0 mi East 21.9 mph 31.1 mph N/A   Overcast
4:53 PM 42.1 °F 32.6 °F 35.1 °F 76% 29.65 in 10.0 mi East 23.0 mph 31.1 mph N/A   Overcast
5:53 PM 43.0 °F 35.4 °F 35.1 °F 74% 29.64 in 10.0 mi East 16.1 mph 27.6 mph N/A   Overcast
6:53 PM 43.0 °F 34.2 °F 35.1 °F 74% 29.64 in 10.0 mi East 20.7 mph 31.1 mph N/A   Overcast
7:53 PM 42.1 °F 33.3 °F 35.1 °F 76% 29.64 in 10.0 mi East 19.6 mph 27.6 mph N/A   Overcast
8:53 PM 43.0 °F 34.0 °F 37.0 °F 80% 29.63 in 10.0 mi East 21.9 mph 29.9 mph N/A   Overcast
9:53 PM 43.0 °F 33.3 °F 36.0 °F 76% 29.63 in 10.0 mi East 25.3 mph 33.4 mph N/A   Overcast
10:53 PM 43.0 °F 34.0 °F 37.0 °F 80% 29.65 in 10.0 mi East 21.9 mph 31.1 mph N/A   Overcast
11:53 PM 43.0 °F 34.8 °F 37.9 °F 82% 29.66 in 10.0 mi East 18.4 mph 26.5 mph 0.00 in Rain Light Rain